NOAA 16 DEB

Satellite information

Favourite Embed

Satellite Type and Status

DEBRISIN ORBIT

Key statistics

Satellite NOAA 16 DEB at a glance.

Uptime

9215

Days in orbit

Revolutions

≈ 14.4

Per day

Orbit

SSO

Sun Synchronous Orbit

Inclination

99.0

Latest

Satellite identification and parameters

Extended collection of information and parameters for NOAA 16 DEB.

Object identification

Identified? True

Debris? True

Object name: NOAA 16 DEB

International designator: 2000-055CR

Object number (NORAD): 41158

Object ID (CCSDS): 41158

Country: UNITED STATES OF AMERICA (US)

Current information (Y/N): Y

RCS size: SMALL

Orbital parameters

Period: 100.028 minutes

Inclination: 98.9543 deg

SMA: 7137.945 km

Apoapsis: 767.251 km

Periapsis: 752.368 km

RAAN: 134.594 deg

Eccentricy: 0.0010425

Argument of periapsis: 23.1172 deg

Mean anomaly: 337.0482 deg

Mean motion: 14.39603803 rev/day

Mean motion (dot): 0.00010662 rev/day2

B* drag term: 0.0034205101 1/REarth

Two-line elements (TLE)

Creation date: Dec. 12, 2025, 3:16 a.m.

Reference frame: TEME

Reference center: EARTH

Epoch: Dec. 11, 2025, 4:11 p.m. UTC

TLE line 0: 0 NOAA 16 DEB

TLE line 1: 1 41158U 00055CR 25345.67444855 .00010662 00000-0 34205-2 0 9992

TLE line 2: 2 41158 98.9543 134.5940 0010425 23.1172 337.0482 14.39603803519978

Live tracking on map

Real-time ground track for satellite NOAA 16 DEB.

In-orbit conjunctions

A list of the most updated potential collisions computed for object NOAA 16 DEB.

Target Orbit TCA Probability of collision Miss distance Type
IRS 1D SSO 2025-11-14 04:58:28 0.0001401677 966.0 (m) PAYLOAD
SL-8 R/B LEO 2025-03-31 08:06:23 0.0001107698 659.0 (m) ROCKET BODY
CZ-6A DEB LEO 2025-02-28 10:52:28 0.0002606666 510.0 (m) DEBRIS
CZ-6A DEB LEO 2025-01-09 14:39:13 0.0001083602 543.0 (m) DEBRIS
CZ-6A DEB LEO 2024-12-27 01:18:39 0.0002383712 663.0 (m) DEBRIS

Associated space launch

The NOAA K, L and M POES satellites begin the fifth generation of improved environmental monitoring in support of NOAA missions. The instrument payload has significant improvements and additions/deletions. The instrument changes have effected the spacecraft subsystems and data formats.

NOAA 16 DEB was lifted into orbit during the mission ‘Titan II SLV | NOAA 16’, on board a Titan II SLV space rocket.

The launch took place on Sept. 21, 2000, 10:22 a.m. from Space Launch Complex 4W.

For more information about the launch, click the button.

Launch to space Titan II SLV | NOAA 16
Titan II SLV | NOAA 16

Agency: N/A

Status: Launch Successful

Launch date: Sept. 21, 2000, 10:22 a.m. UTC

Rocket: Titan II SLV

Launch pad: Space Launch Complex 4W

Location: Vandenberg SFB, CA, USA

...

Latest news about this satellite

There are no fresh news available about this satellite. Check back as we update our databases every day.


Newsletter sign-up

Weekly statistics, charts and insights to help you stay on top of the space industry.